Weather History for KRIC - May, 2014

Change the Weather History Date:

Saturday, May 10, 2014

  Actual Average Record
Temperature  
Mean Temperature 75 °F 65 °F  
Max Temperature 83 °F 77 °F 94 °F (1963)
Min Temperature 66 °F 53 °F 35 °F (1966)
Degree Days  
Heating Degree Days 0 3  
Month to date heating degree days 8 36  
Since 1 July heating degree days 3768 3728  
Cooling Degree Days 10 3  
Month to date cooling degree days 48 22  
Year to date cooling degree days 77 64  
Growing Degree Days 24 (Base 50)    
Moisture  
Dew Point 61 °F    
Average Humidity 66    
Maximum Humidity 81    
Minimum Humidity 51    
Precipitation  
Precipitation 0.24 in 0.12 in 1.35 in (1990)
Month to date precipitation 0.33 1.12  
Year to date precipitation 13.93 14.23  
Snow  
Snow 0.00 in 0.00 in 0.00 in (2002)
Month to date snowfall 0.0 0.0  
Since 1 July snowfall 14.5 10.3  
Snow Depth 0.00 in    
Sea Level Pressure  
Sea Level Pressure 30.03 in    
Wind  
Wind Speed 10 mph (SW)    
Max Wind Speed 24 mph    
Max Gust Speed 35 mph    
Visibility 9 miles    
Events Rain , Thunderstorm    
T = Trace of Precipitation, MM = Missing Value Source: NWS Daily Summary

Daily Weather History Graph

Daily Weather History Graph

Search for Another Location

Airport or City:

Trip Planner

Search our weather history database for the weather conditions in past years. The results will help you decide how hot, cold, wet, or windy it might be!

Date:

Astronomy

May. 10, 2014 Rise Set
Actual Time 6:04 AM EDT 8:07 PM EDT
Civil Twilight 5:35 AM EDT 8:36 PM EDT
Nautical Twilight 5:00 AM EDT 9:11 PM EDT
Astronomical Twilight 4:22 AM EDT 9:49 PM EDT
Moon 4:05 PM EDT (5/10) 3:31 AM EDT (5/10)
Length of Visible Light 15h 00m
Length of Day
14h 02m
Waxing Gibbous, 82% of the Moon is Illuminated
May 10
Waxing Gibbous
May 14
Full
May 21
Last Quarter
May 28
New
Jun 5
First Quarter

Hourly Weather History & Observations

Time (EDT) Temp. Heat Index Dew Point Humidity Pressure Visibility Wind Dir Wind Speed Gust Speed Precip Events Conditions
12:54 AM 70.0 °F - 62.1 °F 76% 30.01 in 10.0 mi SSW 5.8 mph - N/A   Overcast
1:54 AM 70.0 °F - 61.0 °F 73% 30.01 in 10.0 mi SSW 8.1 mph - N/A   Overcast
2:54 AM 70.0 °F - 60.1 °F 71% 30.01 in 10.0 mi SSW 9.2 mph - N/A   Overcast
3:54 AM 70.0 °F - 59.0 °F 68% 30.00 in 10.0 mi SSW 8.1 mph - 0.00 in   Overcast
4:54 AM 70.0 °F - 59.0 °F 68% 29.99 in 10.0 mi SSW 10.4 mph - N/A   Overcast
5:54 AM 71.1 °F - 59.0 °F 66% 30.01 in 10.0 mi SSW 10.4 mph - N/A   Overcast
6:54 AM 71.1 °F - 59.0 °F 66% 30.05 in 10.0 mi SW 9.2 mph - 0.00 in   Overcast
7:54 AM 72.0 °F - 60.1 °F 66% 30.06 in 10.0 mi WSW 10.4 mph - N/A   Overcast
8:54 AM 73.0 °F - 61.0 °F 66% 30.07 in 10.0 mi SW 10.4 mph - N/A   Overcast
9:54 AM 75.9 °F - 61.0 °F 60% 30.07 in 10.0 mi SW 13.8 mph - N/A   Overcast
10:54 AM 79.0 °F - 61.0 °F 54% 30.07 in 10.0 mi SW 11.5 mph 18.4 mph N/A   Mostly Cloudy
11:54 AM 79.0 °F - 62.1 °F 56% 30.07 in 10.0 mi SW 10.4 mph - N/A   Overcast
12:54 PM 81.0 °F 81.7 °F 61.0 °F 50% 30.06 in 10.0 mi Variable 6.9 mph - N/A   Overcast
1:54 PM 80.1 °F 81.1 °F 61.0 °F 52% 30.04 in 10.0 mi SW 6.9 mph - N/A   Overcast
2:54 PM 82.9 °F 83.7 °F 62.1 °F 49% 30.02 in 10.0 mi SW 12.7 mph - N/A   Mostly Cloudy
3:48 PM 80.6 °F 81.8 °F 62.6 °F 54% 30.01 in 3.0 mi West 20.7 mph 28.8 mph 0.00 in Rain , Thunderstorm Light Thunderstorms and Rain
3:52 PM 75.2 °F - 62.6 °F 65% 30.02 in 1.5 mi West 19.6 mph 28.8 mph 0.03 in Rain , Thunderstorm Heavy Thunderstorms and Rain
3:54 PM 72.0 °F - 60.1 °F 66% 30.03 in 2.5 mi West 20.7 mph 31.1 mph 0.04 in Rain , Thunderstorm Heavy Thunderstorms and Rain
4:05 PM 69.8 °F - 62.6 °F 78% 30.00 in 4.0 mi West 9.2 mph 17.3 mph 0.02 in Rain , Thunderstorm Light Thunderstorms and Rain
4:24 PM 71.6 °F - 62.6 °F 73% 29.99 in 10.0 mi SW 6.9 mph - 0.02 in   Mostly Cloudy
4:54 PM 71.1 °F - 64.0 °F 78% 30.00 in 10.0 mi South 6.9 mph - 0.02 in   Mostly Cloudy
5:54 PM 70.0 °F - 63.0 °F 78% 30.03 in 5.0 mi SW 15.0 mph - 0.05 in Rain Light Rain
6:08 PM 69.8 °F - 62.6 °F 78% 30.04 in 2.5 mi SW 19.6 mph 34.5 mph 0.08 in Rain , Thunderstorm Light Thunderstorms and Rain
6:18 PM 69.8 °F - 62.6 °F 78% 30.04 in 5.0 mi WSW 17.3 mph 27.6 mph 0.11 in Rain , Thunderstorm Light Thunderstorms and Rain
6:54 PM 68.0 °F - 63.0 °F 84% 30.02 in 10.0 mi SW 5.8 mph - 0.13 in Rain Light Rain
7:54 PM 66.9 °F - 61.0 °F 81% 30.04 in 10.0 mi South 11.5 mph - 0.00 in   Overcast
8:54 PM 66.0 °F - 61.0 °F 84% 30.04 in 10.0 mi SW 9.2 mph - N/A   Overcast
9:54 PM 66.9 °F - 60.1 °F 79% 30.05 in 10.0 mi WSW 8.1 mph - 0.00 in   Overcast
10:54 PM 66.9 °F - 59.0 °F 76% 30.04 in 10.0 mi SW 6.9 mph - 0.00 in Rain Light Rain
11:54 PM 66.9 °F - 59.0 °F 76% 30.04 in 10.0 mi SSW 5.8 mph - 0.00 in   Mostly Cloudy